User: anonymous   Login
Location: Grange Rosano
(44.4500°N, 6.9667°E)
Time: 07:19:39
(UTC+00:00)
Language:

USA 308 - Orbit

View from above orbital plane
View from above orbital plane
View from above satellite
View from above satellite

Ground track
Ground track

The orbit data is extracted from the following two-line orbital elements,

1 45876U 20046D   22226.91193992 0.00010000  00000-0  67962-3 0    06
2 45876  53.9791 221.0514 0004037 142.7265 217.2734 15.05890681    01
Epoch (UTC): 14 August 2022 21:53:11
Eccentricity: 0.0004037
inclination: 53.9791°
perigee height: 546 km
apogee height: 551 km
right ascension of ascending node: 221.0514°
argument of perigee: 142.7265°
revolutions per day: 15.05890681
mean anomaly at epoch: 217.2734°
orbit number at epoch: 0

The dashed part of the orbit path shows where the satellite is in the earth's shadow,  

DLR